Temp
-7 -7 -7 -6 -6 -6 -6 -6 -6 -6 -6 -6 -6 -6 -6 -6 -6 -6 -6 -6 -5 -6 -6 -6 -6 -6 -6 -6 -6 -6 -7 -8 -9 -9 -9 -8 -9 -8 -9 -9 -9 -9 -9 -8 -9
-7 -7 -7 -6 -6 -6 -6 -6 -6 -6 -6 -6 -6 -6 -6 -6 -6 -5 -5 -6 -6 -6 -6 -6 -6 -6 -6 -6 -6 -6 -7 -9 -10 -9 -8 -10 -8 -8 -8 -8 -9 -9 -9 -9 -9
-8 -7 -7 -7 -7 -7 -6 -6 -6 -6 -6 -6 -6 -6 -6 -6 -6 -5 -5 -5 -5 -6 -6 -6 -6 -6 -7 -7 -6 -7 -7 -9 -10 -9 -7 -8 -10 -9 -8 -8 -9 -8 -9 -9 -9
-7 -8 -7 -7 -7 -7 -6 -6 -6 -6 -6 -6 -6 -6 -6 -6 -6 -6 -5 -5 -5 -5 -6 -6 -6 -6 -6 -7 -7 -7 -8 -9 -10 -9 -8 -10 -11 -10 -10 -10 -10 -10 -8 -9 -9
-8 -7 -7 -7 -7 -7 -6 -6 -6 -6 -6 -6 -6 -6 -6 -6 -6 -6 -6 -6 -5 -5 -5 -6 -6 -6 -7 -7 -7 -7 -8 -9 -10 -10 -9 -11 -11 -11 -11 -10 -9 -10 -9 -9 -9
-8 -8 -8 -7 -7 -7 -7 -7 -6 -6 -6 -6 -6 -6 -6 -6 -6 -6 -6 -6 -6 -6 -6 -6 -6 -6 -6 -7 -7 -7 -7 -8 -8 -9 -9 -10 -11 -11 -11 -11 -10 -9 -9 -9 -9
-8 -8 -8 -7 -7 -7 -7 -7 -7 -6 -6 -6 -6 -6 -6 -6 -6 -6 -6 -6 -6 -6 -6 -6 -6 -6 -7 -7 -7 -7 -7 -7 -8 -8 -9 -9 -9 -10 -10 -10 -10 -10 -10 -9 -10
-8 -8 -8 -8 -7 -7 -7 -7 -7 -7 -6 -6 -6 -6 -6 -6 -7 -7 -7 -7 -7 -7 -7 -7 -7 -7 -7 -7 -7 -8 -8 -8 -8 -9 -9 -9 -9 -9 -9 -10 -10 -10 -9 -10 -10
-8 -8 -8 -8 -8 -8 -7 -7 -7 -7 -7 -7 -7 -7 -7 -7 -7 -7 -7 -7 -7 -7 -8 -7 -7 -7 -8 -8 -8 -8 -9 -8 -8 -9 -10 -10 -10 -10 -10 -10 -11 -10 -10 -11 -11
-8 -8 -8 -8 -8 -8 -8 -7 -7 -7 -7 -7 -7 -7 -8 -7 -8 -8 -8 -8 -8 -8 -8 -8 -8 -8 -9 -9 -10 -10 -9 -8 -9 -10 -10 -10 -10 -10 -10 -11 -11 -10 -11 -11 -11
-8 -9 -8 -8 -8 -8 -8 -8 -7 -7 -7 -7 -7 -8 -8 -8 -8 -8 -8 -8 -8 -8 -9 -8 -9 -9 -9 -9 -10 -9 -9 -9 -9 -10 -10 -10 -10 -10 -11 -11 -10 -11 -11 -11 -10
-9 -9 -9 -9 -8 -8 -8 -8 -8 -8 -7 -8 -8 -8 -8 -8 -8 -9 -9 -9 -9 -9 -9 -9 -9 -9 -10 -10 -10 -10 -9 -10 -10 -10 -11 -10 -10 -10 -11 -11 -11 -11 -11 -11 -11
-9 -9 -9 -9 -9 -9 -8 -8 -8 -8 -8 -8 -8 -8 -8 -8 -9 -9 -9 -9 -9 -10 -10 -10 -10 -10 -10 -10 -10 -10 -10 -10 -10 -10 -11 -10 -10 -10 -11 -11 -11 -11 -11 -11 -11
-10 -9 -9 -9 -9 -9 -8 -8 -8 -8 -8 -8 -8 -8 -8 -9 -9 -10 -9 -10 -10 -10 -10 -10 -11 -11 -12 -12 -11 -11 -11 -10 -10 -10 -10 -10 -9 -10 -10 -11 -11 -12 -10 -11 -11
-10 -10 -9 -9 -9 -9 -9 -9 -9 -9 -8 -9 -8 -8 -9 -9 -10 -9 -10 -10 -10 -10 -11 -11 -12 -13 -13 -12 -12 -11 -11 -10 -10 -10 -10 -10 -11 -10 -10 -11 -11 -11 -11 -11 -11
-10 -10 -10 -10 -10 -10 -9 -9 -9 -9 -8 -9 -9 -9 -9 -9 -10 -9 -10 -10 -10 -10 -11 -12 -12 -13 -12 -12 -13 -12 -12 -11 -11 -11 -11 -12 -12 -10 -10 -11 -11 -11 -11 -10 -11
-10 -10 -10 -10 -10 -10 -10 -9 -10 -10 -8 -8 -9 -9 -10 -9 -9 -9 -10 -11 -11 -11 -11 -11 -12 -11 -12 -12 -12 -12 -12 -11 -11 -11 -11 -12 -12 -11 -11 -11 -11 -11 -11 -11 -11
-11 -10 -10 -10 -10 -10 -10 -10 -10 -10 -9 -9 -9 -10 -10 -10 -10 -10 -11 -11 -10 -12 -12 -12 -12 -12 -13 -12 -12 -12 -12 -12 -11 -11 -11 -12 -12 -12 -12 -12 -11 -11 -11 -11 -11
-10 -10 -10 -10 -11 -10 -10 -10 -10 -10 -9 -10 -10 -10 -11 -11 -12 -12 -12 -11 -9 -10 -12 -12 -11 -12 -12 -13 -12 -13 -13 -13 -12 -12 -11 -12 -12 -11 -12 -12 -12 -11 -11 -11 -11
-11 -11 -11 -11 -11 -10 -11 -11 -11 -10 -10 -10 -11 -10 -10 -10 -10 -11 -12 -11 -10 -11 -12 -11 -11 -12 -12 -13 -12 -12 -12 -12 -11 -12 -12 -12 -12 -12 -12 -12 -11 -11 -11 -11 -12
-11 -11 -11 -11 -11 -11 -11 -11 -11 -10 -10 -10 -10 -11 -11 -11 -10 -10 -11 -11 -10 -10 -11 -12 -11 -12 -12 -12 -13 -13 -12 -12 -12 -12 -12 -11 -12 -12 -12 -12 -11 -11 -11 -11 -11
-12 -12 -11 -11 -11 -11 -11 -11 -11 -10 -10 -11 -11 -11 -11 -11 -11 -11 -11 -11 -11 -11 -11 -11 -11 -11 -12 -12 -13 -12 -12 -12 -12 -12 -12 -12 -12 -12 -12 -12 -12 -11 -11 -10 -11
-12 -12 -12 -11 -11 -11 -11 -11 -10 -10 -10 -11 -11 -11 -11 -11 -11 -11 -11 -12 -12 -11 -11 -12 -11 -11 -12 -12 -12 -12 -12 -12 -12 -12 -12 -12 -12 -12 -12 -11 -11 -11 -10 -11 -11
-12 -12 -12 -12 -11 -11 -11 -11 -11 -11 -11 -11 -11 -11 -11 -11 -11 -12 -11 -11 -11 -11 -11 -11 -11 -12 -12 -12 -12 -12 -13 -13 -13 -12 -12 -12 -13 -13 -13 -13 -12 -11 -11 -11 -11
-13 -12 -12 -11 -12 -11 -12 -12 -11 -12 -12 -11 -11 -11 -11 -11 -11 -11 -11 -11 -11 -11 -11 -11 -12 -12 -12 -12 -12 -13 -13 -13 -13 -13 -13 -12 -13 -13 -14 -13 -13 -12 -12 -12 -12
-13 -13 -12 -12 -12 -12 -12 -12 -12 -11 -11 -11 -11 -11 -11 -11 -11 -12 -12 -12 -12 -12 -12 -11 -12 -12 -12 -12 -12 -13 -13 -13 -13 -13 -13 -13 -13 -13 -13 -13 -13 -13 -12 -12 -12
-13 -13 -13 -12 -12 -12 -12 -11 -11 -11 -11 -11 -11 -11 -12 -12 -12 -12 -12 -12 -12 -12 -11 -11 -12 -12 -12 -13 -13 -12 -13 -13 -13 -13 -13 -13 -13 -13 -14 -14 -14 -14 -13 -13 -13
Height
5874 5875 5876 5876 5878 5880 5881 5881 5882 5884 5885 5885 5885 5887 5888 5887 5886 5885 5885 5885 5884 5883 5882 5883 5883 5884 5884 5885 5887 5888 5893 5893 5892 5890 5885 5887 5889 5887 5891 5892 5887 5894 5894 5895 5897
5871 5872 5873 5874 5876 5878 5879 5880 5881 5882 5883 5883 5884 5886 5887 5885 5885 5884 5885 5883 5883 5882 5881 5881 5882 5882 5882 5883 5884 5888 5891 5891 5889 5889 5886 5881 5884 5885 5886 5890 5885 5892 5893 5891 5894
5869 5869 5871 5872 5873 5876 5877 5879 5879 5880 5881 5881 5882 5884 5884 5883 5884 5884 5883 5882 5882 5881 5880 5879 5880 5880 5880 5881 5882 5885 5888 5888 5888 5887 5885 5883 5878 5882 5882 5883 5887 5892 5892 5891 5892
5866 5868 5869 5870 5872 5874 5876 5877 5877 5878 5879 5879 5880 5883 5883 5882 5883 5881 5881 5882 5882 5881 5879 5879 5878 5878 5879 5879 5880 5882 5884 5885 5885 5884 5883 5883 5881 5876 5880 5881 5886 5888 5889 5890 5886
5864 5866 5867 5869 5871 5872 5873 5875 5875 5876 5877 5878 5879 5881 5881 5881 5879 5879 5878 5879 5880 5879 5877 5876 5878 5877 5875 5876 5878 5879 5879 5880 5880 5880 5881 5881 5883 5883 5882 5881 5882 5884 5885 5888 5887
5863 5864 5866 5866 5868 5870 5871 5873 5874 5874 5875 5876 5877 5878 5878 5879 5877 5877 5876 5876 5876 5876 5875 5874 5874 5875 5874 5874 5875 5876 5878 5877 5876 5877 5878 5878 5879 5880 5881 5880 5881 5883 5884 5886 5886
5860 5862 5864 5865 5866 5868 5869 5870 5871 5872 5873 5873 5874 5874 5875 5875 5873 5873 5873 5873 5873 5873 5872 5871 5871 5872 5873 5872 5873 5874 5876 5878 5877 5877 5876 5877 5878 5878 5879 5881 5882 5882 5883 5884 5882
5858 5860 5862 5863 5864 5866 5866 5868 5869 5868 5870 5870 5871 5870 5871 5871 5870 5869 5869 5869 5869 5869 5868 5868 5868 5868 5868 5869 5871 5872 5872 5873 5877 5878 5879 5877 5876 5876 5878 5879 5880 5880 5880 5880 5880
5855 5857 5859 5860 5861 5862 5863 5864 5865 5866 5866 5867 5868 5867 5866 5865 5866 5865 5865 5865 5865 5864 5864 5865 5865 5865 5866 5866 5867 5867 5867 5868 5869 5871 5872 5872 5873 5875 5877 5876 5876 5875 5876 5877 5875
5853 5854 5857 5857 5859 5859 5860 5861 5861 5862 5863 5863 5864 5865 5863 5862 5862 5861 5861 5861 5861 5861 5861 5861 5862 5862 5862 5862 5862 5863 5863 5865 5865 5865 5866 5868 5867 5866 5869 5871 5873 5873 5874 5874 5876
5850 5851 5852 5854 5854 5855 5857 5858 5860 5860 5859 5859 5859 5859 5859 5859 5858 5858 5858 5858 5858 5857 5858 5857 5858 5858 5858 5859 5858 5857 5859 5861 5861 5862 5862 5861 5863 5861 5865 5867 5870 5871 5871 5870 5872
5846 5848 5849 5850 5851 5852 5854 5855 5855 5855 5856 5855 5855 5855 5856 5856 5855 5855 5855 5855 5854 5854 5854 5855 5855 5854 5854 5855 5856 5856 5857 5858 5858 5860 5860 5861 5860 5864 5863 5863 5864 5866 5867 5867 5867
5840 5843 5844 5847 5848 5849 5849 5851 5851 5852 5851 5853 5852 5852 5854 5853 5852 5852 5852 5851 5851 5851 5851 5851 5852 5851 5851 5853 5854 5854 5855 5854 5854 5855 5856 5856 5858 5861 5865 5858 5859 5862 5862 5861 5862
5837 5840 5842 5843 5844 5844 5846 5848 5848 5848 5848 5850 5849 5851 5852 5850 5850 5849 5849 5849 5848 5848 5848 5849 5847 5847 5848 5852 5849 5850 5850 5848 5850 5852 5853 5853 5857 5861 5857 5856 5850 5847 5852 5854 5855
5833 5836 5836 5837 5840 5843 5845 5844 5844 5845 5847 5848 5848 5848 5847 5847 5848 5847 5845 5845 5845 5845 5847 5846 5846 5846 5846 5848 5847 5849 5846 5846 5847 5848 5852 5856 5849 5848 5848 5848 5846 5842 5844 5846 5849
5828 5830 5832 5835 5838 5838 5839 5840 5842 5843 5843 5846 5846 5844 5843 5844 5844 5843 5843 5844 5843 5843 5843 5843 5844 5843 5844 5845 5844 5844 5844 5844 5844 5845 5849 5849 5845 5843 5843 5841 5839 5840 5837 5837 5841
5824 5826 5828 5831 5833 5834 5836 5838 5840 5838 5841 5841 5840 5841 5841 5841 5841 5841 5842 5841 5841 5841 5841 5841 5841 5842 5843 5844 5843 5841 5841 5840 5842 5841 5843 5843 5841 5840 5839 5837 5835 5836 5833 5838 5841
5819 5822 5823 5826 5828 5831 5833 5835 5834 5835 5836 5837 5837 5838 5837 5838 5838 5837 5838 5839 5839 5839 5839 5840 5842 5843 5842 5841 5841 5839 5839 5839 5839 5838 5839 5840 5837 5836 5834 5834 5831 5830 5831 5831 5834
5814 5816 5819 5821 5823 5826 5830 5831 5828 5831 5833 5834 5834 5835 5836 5836 5836 5836 5835 5834 5836 5837 5837 5837 5839 5839 5840 5839 5838 5838 5837 5836 5835 5836 5837 5838 5836 5833 5830 5828 5827 5826 5825 5828 5828
5808 5812 5814 5816 5819 5822 5824 5825 5823 5826 5827 5829 5830 5831 5831 5832 5833 5833 5832 5831 5832 5834 5834 5835 5836 5836 5838 5837 5836 5837 5836 5835 5833 5833 5833 5834 5834 5831 5828 5823 5819 5820 5825 5826 5826
5803 5806 5809 5811 5814 5815 5818 5819 5818 5821 5822 5824 5825 5827 5827 5827 5829 5828 5828 5828 5829 5830 5831 5831 5832 5835 5834 5834 5832 5831 5830 5830 5831 5830 5828 5828 5828 5826 5824 5820 5817 5819 5823 5824 5825
5796 5800 5803 5804 5807 5809 5810 5810 5812 5814 5816 5819 5820 5821 5822 5823 5822 5823 5823 5824 5826 5825 5828 5826 5826 5829 5831 5829 5824 5825 5825 5825 5826 5827 5825 5824 5824 5821 5819 5815 5810 5816 5817 5818 5820
5788 5792 5794 5796 5799 5802 5804 5806 5806 5808 5811 5813 5814 5816 5817 5818 5819 5818 5819 5818 5820 5823 5822 5822 5821 5824 5826 5826 5823 5821 5820 5820 5819 5820 5821 5819 5819 5816 5815 5810 5806 5808 5809 5813 5811
5780 5781 5788 5788 5792 5798 5799 5799 5799 5800 5803 5805 5807 5808 5809 5811 5812 5815 5813 5813 5813 5815 5816 5817 5817 5816 5821 5819 5817 5816 5815 5814 5814 5815 5814 5815 5811 5812 5811 5804 5800 5801 5803 5806 5806
5771 5775 5779 5783 5786 5789 5791 5792 5793 5794 5794 5797 5800 5801 5802 5804 5805 5806 5810 5806 5806 5807 5809 5811 5811 5809 5810 5812 5809 5807 5808 5809 5808 5809 5806 5809 5805 5808 5803 5796 5796 5796 5797 5799 5799
5762 5766 5768 5773 5776 5779 5782 5783 5783 5784 5787 5789 5793 5794 5795 5797 5800 5800 5799 5799 5796 5797 5799 5801 5802 5800 5801 5801 5799 5797 5800 5803 5802 5800 5797 5796 5796 5797 5790 5788 5789 5788 5788 5789 5787
5751 5755 5759 5764 5767 5771 5771 5771 5774 5776 5776 5781 5785 5788 5788 5788 5789 5791 5790 5789 5787 5787 5787 5788 5793 5794 5790 5793 5788 5784 5792 5793 5792 5789 5786 5784 5786 5785 5785 5782 5781 5781 5780 5781 5780
Wind_Speed
14 14 13 12 13 11 9 8 7 5 4 2 1 1 2 3 4 4 5 6 6 4 5 7 8 8 10 12 17 18 8 16 17 11 5 5 10 16 13 22 16 13 22 20 20
13 12 11 10 9 9 8 7 6 4 3 3 3 4 7 5 3 3 4 6 6 6 4 6 7 8 10 10 13 13 10 22 19 15 5 1 5 13 22 19 12 20 19 20 21
11 10 9 9 9 8 8 7 6 5 5 6 5 4 4 1 1 3 4 5 7 7 5 3 7 8 9 8 9 11 17 26 19 16 14 10 12 12 16 25 12 14 20 20 17
13 10 10 8 9 9 8 6 6 5 5 4 2 1 2 2 3 2 3 6 7 7 6 5 4 7 8 9 10 12 22 30 21 19 14 6 7 16 14 22 11 16 15 24 12
12 11 10 10 8 8 7 6 6 5 4 4 4 4 5 7 7 7 6 6 8 9 7 6 7 6 9 12 11 12 25 36 31 26 23 15 10 15 23 27 25 24 30 32 26
10 10 10 9 8 8 6 6 5 5 5 5 7 7 9 10 10 10 10 10 10 10 9 8 8 9 8 10 10 13 19 29 37 36 29 27 20 20 21 21 26 33 36 30 30
11 10 10 9 9 8 8 7 7 7 7 8 7 8 8 8 11 10 11 11 12 12 12 11 11 9 7 8 10 11 11 18 28 32 36 34 29 31 28 23 28 25 29 26 19
10 11 10 9 9 9 8 8 8 7 7 8 9 11 11 12 11 14 13 13 14 14 14 14 11 11 9 8 8 7 11 13 16 28 34 35 32 29 27 24 20 26 28 22 25
12 12 12 12 11 10 9 9 8 9 9 10 12 12 12 13 11 11 11 12 13 14 15 15 14 12 9 5 5 10 14 14 12 7 5 25 31 30 21 17 22 25 24 22 26
14 14 14 12 12 10 9 10 9 10 11 12 11 10 10 10 10 10 10 11 12 14 14 13 12 11 8 10 11 14 17 17 14 9 10 11 12 14 16 20 23 16 21 25 27
16 15 13 14 12 11 10 10 11 12 12 12 11 10 10 10 9 9 9 9 10 11 13 14 11 12 10 12 17 21 20 18 16 4 13 14 8 14 19 23 25 17 21 27 22
17 15 15 13 12 11 12 11 12 13 11 10 8 7 6 8 6 6 8 8 9 10 11 13 13 13 15 17 22 21 15 9 14 12 18 15 8 11 22 26 30 27 25 20 19
15 15 13 14 14 12 12 12 13 11 10 8 6 5 4 2 3 4 5 6 7 9 10 13 11 16 18 15 15 18 16 14 19 22 18 24 18 19 20 28 20 22 17 20 21
17 17 17 15 13 13 13 13 10 7 6 3 4 5 5 0 3 3 3 3 4 8 10 14 17 12 12 4 14 9 16 21 19 28 28 27 20 17 16 13 16 24 23 18 19
20 18 16 14 14 14 12 9 8 5 6 6 7 7 3 3 2 2 3 5 5 7 6 8 15 10 13 9 15 10 18 20 19 24 25 24 26 31 21 20 20 21 24 14 18
19 18 17 16 16 15 13 9 8 6 8 11 8 5 1 2 2 3 3 3 4 6 4 9 17 19 15 11 13 8 13 12 12 10 5 6 11 14 12 12 21 22 26 20 20
21 19 19 18 17 15 11 12 9 10 8 5 1 2 5 9 7 2 3 7 5 6 6 9 15 15 16 12 12 14 12 11 9 11 16 5 9 15 16 21 21 18 22 28 21
21 21 20 19 17 16 13 13 14 16 10 8 5 6 7 10 9 12 11 9 10 1 3 8 11 10 15 16 11 13 12 12 12 17 21 10 12 18 24 26 31 26 22 24 22
23 21 21 21 18 16 15 15 20 17 12 8 6 7 8 10 10 13 14 16 9 6 8 6 4 7 11 13 17 12 13 16 16 13 17 17 20 25 23 28 29 36 26 26 18
24 24 25 21 21 19 18 20 23 17 15 14 14 13 14 14 16 13 15 16 11 6 9 13 7 10 6 7 13 16 16 15 20 23 24 23 22 30 31 37 41 18 32 35 26
27 26 26 25 24 21 22 27 26 21 20 18 18 18 19 20 18 19 18 22 16 9 8 12 11 9 12 16 22 21 23 21 17 16 20 25 26 24 31 35 39 39 32 22 27
30 28 27 27 26 26 28 32 30 24 23 20 22 22 23 23 24 22 23 23 21 23 10 14 15 11 13 17 25 25 25 24 23 23 24 27 27 27 29 34 39 32 30 36 30
33 32 32 31 29 28 28 28 31 27 23 20 26 23 25 25 28 26 23 27 27 24 21 17 21 15 14 19 25 26 27 29 29 26 22 22 26 28 27 34 39 34 30 26 26
36 38 35 34 31 27 26 27 27 27 25 24 26 27 27 27 28 27 28 30 32 29 26 24 25 24 17 22 26 27 29 31 32 29 29 24 26 16 22 34 37 34 32 27 26
36 39 36 34 31 29 27 27 27 27 29 28 27 28 30 29 28 29 27 33 34 33 30 28 28 30 28 25 30 34 34 32 34 32 35 30 33 28 33 36 38 40 39 35 30
38 39 39 38 36 33 31 32 33 33 32 32 30 29 29 27 24 24 28 30 35 35 33 31 32 34 32 32 34 37 35 32 35 36 39 39 37 35 40 41 38 39 40 37 36
40 41 43 41 40 36 36 38 37 35 36 33 32 28 29 29 30 29 30 33 37 38 38 38 32 34 37 34 39 44 34 32 33 36 41 43 42 42 41 42 42 39 41 39 39
Wind_Direction
241 244 242 243 243 238 226 207 197 199 200 210 189 323 320 2 30 21 17 14 3 333 269 255 249 241 243 238 234 238 220 176 205 192 184 145 273 275 301 305 335 343 325 325 329
241 235 232 226 220 207 204 206 196 194 214 238 275 303 299 308 348 350 351 13 14 7 321 264 251 246 242 240 238 238 180 171 205 210 196 311 263 294 310 309 352 333 321 314 345
234 222 215 202 197 204 206 201 201 211 235 259 278 290 280 304 18 354 352 358 4 6 5 324 265 254 245 250 235 214 176 182 204 211 210 199 281 308 301 316 324 319 334 327 339
240 210 200 194 200 202 208 208 218 225 232 233 217 238 282 315 317 10 7 347 349 338 359 352 303 260 259 245 236 199 187 188 196 212 204 171 308 308 294 292 299 312 303 324 308
204 200 194 189 194 203 202 209 203 206 213 229 247 259 276 285 292 296 303 300 302 309 322 331 316 281 246 247 250 214 197 198 201 215 216 187 193 270 284 281 289 296 299 301 305
191 187 193 185 191 201 206 219 226 233 246 256 266 268 265 277 283 287 288 283 279 281 288 294 296 301 286 263 245 236 225 212 216 221 215 207 212 228 256 281 276 282 291 299 312
199 195 201 201 202 212 224 238 250 259 270 275 275 276 274 281 286 286 281 279 277 273 272 266 269 268 269 257 257 260 248 245 237 231 231 235 233 235 240 256 272 279 284 292 298
204 207 212 213 219 228 236 244 258 265 267 275 281 285 291 285 284 288 284 280 276 273 272 270 264 250 242 255 241 224 226 209 214 234 248 258 259 265 280 278 290 284 285 299 308
207 212 218 221 226 228 238 249 257 261 276 285 284 283 287 288 289 285 284 279 277 274 267 264 259 250 238 235 247 224 230 218 191 171 217 240 260 259 270 306 308 287 293 299 294
213 217 220 224 229 235 241 249 263 274 278 279 283 288 288 289 286 291 287 287 280 270 266 262 257 236 218 195 185 210 226 225 173 169 237 252 252 276 299 302 306 284 274 280 296
219 220 221 225 228 235 248 258 272 275 274 279 278 279 281 281 291 290 291 291 288 283 273 261 239 220 220 216 216 223 224 232 203 193 268 240 256 265 271 272 299 300 270 281 303
220 222 222 229 236 242 249 260 266 270 272 269 274 267 275 276 290 301 300 301 293 286 267 260 239 220 211 227 223 228 240 248 190 192 245 245 245 255 271 285 289 287 288 308 336
223 225 228 234 239 250 260 265 262 262 262 249 249 265 265 295 314 320 313 300 288 276 262 249 219 213 219 222 234 243 249 260 218 204 229 241 235 234 237 283 288 279 296 311 321
225 225 230 237 248 255 263 258 254 231 224 202 217 231 233 206 48 348 315 313 301 292 278 246 223 238 271 262 263 259 240 242 232 216 227 251 267 263 245 233 252 260 261 283 314
224 226 233 243 247 254 251 251 239 204 182 202 217 240 245 343 33 326 356 353 329 294 307 239 188 218 260 269 269 256 240 244 244 230 242 247 262 263 269 247 233 257 268 300 307
226 230 234 235 242 242 233 220 230 218 209 190 189 213 306 330 271 293 355 345 321 300 257 219 210 230 250 229 251 263 258 265 251 249 176 300 290 246 247 248 242 251 265 276 264
227 226 229 234 235 236 227 218 219 222 222 213 194 276 296 303 314 52 356 327 318 313 318 258 235 253 254 265 273 260 267 255 231 222 197 277 289 257 263 275 267 249 283 273 261
226 227 230 232 229 228 219 227 222 231 237 263 238 258 296 310 314 315 318 306 312 19 213 239 249 282 266 273 258 245 257 265 257 237 220 245 267 278 280 288 267 250 265 271 254
229 230 232 225 224 225 221 223 235 232 242 261 259 256 241 275 277 277 294 291 334 343 258 246 290 260 297 267 247 236 248 262 270 257 252 251 277 285 302 292 279 256 249 247 253
231 232 225 223 226 225 221 223 233 236 236 237 242 250 258 257 261 255 258 271 310 339 273 274 279 274 275 241 261 275 271 275 290 270 260 267 285 266 275 281 288 271 254 258 254
230 229 226 225 228 230 228 229 233 230 236 238 240 247 254 260 264 269 273 277 288 290 279 279 275 258 263 268 271 272 280 284 287 284 283 281 275 271 279 282 277 278 285 271 266
232 227 230 232 232 233 234 233 235 232 237 242 244 241 246 251 261 269 274 277 283 288 281 260 269 257 256 260 263 271 274 278 282 283 285 281 287 284 284 284 287 288 298 275 301
235 229 230 233 234 235 240 243 243 246 246 239 242 244 246 250 250 263 271 273 275 273 279 274 276 269 255 249 261 271 276 280 281 282 285 292 297 286 281 282 287 290 291 297 297
236 234 226 235 237 239 244 242 245 252 251 244 241 246 249 247 250 254 267 268 267 267 266 264 268 270 258 253 257 262 268 272 276 282 283 285 290 279 299 291 287 287 288 293 296
238 237 235 234 239 239 242 247 247 247 250 250 246 248 251 253 256 263 259 270 272 270 268 266 270 269 265 255 255 255 256 263 273 276 279 280 277 277 277 272 278 284 288 293 296
237 235 236 234 237 236 236 242 245 248 250 250 246 254 256 259 262 265 269 267 271 271 263 256 256 260 262 264 263 262 261 263 264 268 272 274 271 269 268 270 274 280 284 289 292
238 237 237 236 237 240 241 245 249 253 264 259 253 245 257 266 264 263 265 267 266 267 269 267 261 259 262 261 265 265 270 267 267 266 266 267 271 271 272 276 279 279 280 284 286